Date String (YYYY-MM-DD hh:mm:ss) UTC,Instrument flags,Ambient pressure (hPa),Sample flow (lpm),Bypass flow (lpm),Sample temperature (°C),Ambient temperature (°C),ASC tube jacket temperature (°C),LED temperature (°C),Box temperature (°C),Sample RH (%),Span deviation,Mass concentration (μg/m³),Mass concentration (μg/m³),Mass concentration (μg/m³)
DateTimeUTC,F1_M11,P_M11,Q1_M11,Q2_M11,T1_M11,T2_M11,T3_M11,T4_M11,T5_M11,U1_M11,ZSPAN_M11,X0_M11,X2_M11,X1_M11
2022-07-22 20:00:00,,0827.3,4.99,0.00,29.2,27.0,00.0,37.7,31.0,20.1,0000.0,0022.12,0007.59,0006.13
2022-07-22 20:01:00,,0827.3,5.00,0.00,29.1,27.1,00.0,37.8,31.0,20.0,0000.0,0022.32,0007.63,0006.13
2022-07-22 20:02:00,,0827.2,5.00,0.00,29.1,27.3,00.0,37.8,31.0,20.0,0000.0,0022.47,0007.65,0006.13
2022-07-22 20:03:00,,0827.3,5.01,0.00,29.1,27.5,00.0,37.8,31.0,20.0,0000.0,0021.66,0007.61,0006.13
2022-07-22 20:04:00,,0827.2,5.00,0.00,29.1,27.7,00.0,37.8,31.1,19.6,0000.0,0021.03,0007.57,0006.13
2022-07-22 20:05:00,,0827.3,5.00,0.00,29.2,27.9,00.0,37.8,31.2,19.5,0000.0,0019.78,0007.47,0006.13
2022-07-22 20:06:00,,0827.3,5.00,0.00,29.2,27.6,00.0,37.8,31.2,19.5,0000.0,0019.56,0007.50,0006.13
2022-07-22 20:07:00,,0827.2,4.99,0.00,29.2,27.0,00.0,37.8,31.1,19.7,0000.0,0019.95,0007.52,0006.14
2022-07-22 20:08:00,,0827.2,5.00,0.00,29.2,27.0,00.0,37.7,31.0,19.9,0000.0,0019.51,0007.57,0006.16
2022-07-22 20:09:00,,0827.2,5.00,0.00,29.1,27.1,00.0,37.8,31.0,20.0,0000.0,0019.13,0007.58,0006.16
2022-07-22 20:10:00,,0827.2,5.00,0.00,29.1,27.3,00.0,37.8,31.0,20.1,0000.0,0019.40,0007.62,0006.14
2022-07-22 20:11:00,,0827.2,5.00,0.00,29.1,27.5,00.0,37.8,31.0,20.2,0000.0,0019.88,0007.57,0006.13
2022-07-22 20:12:00,,0827.2,5.00,0.00,29.2,27.7,00.0,37.8,31.1,19.8,0000.9,0019.20,0007.53,0006.13
2022-07-22 20:13:00,,0827.2,5.00,0.00,29.2,27.9,00.0,37.8,31.2,19.8,0003.7,0020.09,0007.49,0006.12
2022-07-22 20:14:00,,0827.2,4.99,0.00,29.2,27.6,00.0,37.8,31.2,19.5,0003.3,0021.02,0007.48,0006.11
2022-07-22 20:15:00,,0827.2,5.01,0.00,29.2,27.0,00.0,37.7,31.1,19.6,0003.1,0021.06,0007.53,0006.11
2022-07-22 20:16:00,,0827.2,4.99,0.00,29.1,26.9,00.0,37.7,31.0,18.7,0000.6,0021.63,0007.55,0006.10
2022-07-22 20:17:00,,0827.2,5.00,0.00,29.1,27.1,00.0,37.8,31.0,17.8,0000.0,0022.29,0007.50,0006.07
2022-07-22 20:18:00,,0827.1,5.00,0.00,29.1,27.2,00.0,37.8,31.0,18.1,0000.0,0022.95,0007.47,0006.05
2022-07-22 20:19:00,,0827.1,5.00,0.00,29.1,27.4,00.0,37.8,31.0,18.2,0000.0,0023.41,0007.46,0006.03
2022-07-22 20:20:00,,0827.1,5.00,0.00,29.1,27.7,00.0,37.8,31.1,18.7,0000.0,0023.55,0007.40,0006.01
2022-07-22 20:21:00,,0827.3,5.00,0.00,29.2,27.9,00.0,37.8,31.2,18.5,0000.0,0023.37,0007.37,0006.00
2022-07-22 20:22:00,,0827.2,5.00,0.00,29.2,27.9,00.0,37.8,31.2,17.9,0000.0,0022.21,0007.38,0005.98
2022-07-22 20:23:00,,0827.5,4.99,0.00,29.2,27.3,00.0,37.8,31.1,18.1,0000.0,0022.33,0007.41,0005.97
2022-07-22 20:24:00,,0827.2,5.01,0.00,29.2,26.9,00.0,37.7,31.1,18.5,0000.0,0020.97,0007.41,0005.95
2022-07-22 20:25:00,,0827.2,5.00,0.00,29.2,27.0,00.0,37.7,31.0,18.5,0000.0,0020.96,0007.45,0005.95
2022-07-22 20:26:00,,0827.1,5.00,0.00,29.1,27.2,00.0,37.8,31.0,18.6,0000.0,0021.70,0007.40,0005.95
2022-07-22 20:27:00,,0827.0,5.00,0.00,29.1,27.4,00.0,37.8,31.0,18.7,0000.0,0021.09,0007.36,0005.95
2022-07-22 20:28:00,,0827.0,5.00,0.00,29.1,27.6,00.0,37.8,31.1,18.6,0000.0,0020.32,0007.33,0005.97
2022-07-22 20:29:00,,0827.0,4.99,0.00,29.2,27.8,00.0,37.8,31.2,18.3,0000.0,0019.83,0007.31,0005.98
2022-07-22 20:30:00,,0827.0,4.99,0.00,29.2,27.8,00.0,37.8,31.2,18.1,0000.0,0018.88,0007.26,0005.98
2022-07-22 20:31:00,,0827.0,5.01,0.00,29.2,27.3,00.0,37.8,31.1,18.0,0000.0,0019.26,0007.28,0005.98
2022-07-22 20:32:00,,0827.0,4.99,0.00,29.2,27.0,00.0,37.7,31.0,17.8,0000.0,0020.95,0007.31,0005.98
2022-07-22 20:33:00,,0827.0,5.01,0.00,29.1,27.0,00.0,37.8,31.0,17.9,0000.0,0022.11,0007.30,0005.97
2022-07-22 20:34:00,,0827.0,5.00,0.00,29.1,27.2,00.0,37.8,31.0,17.8,0000.0,0022.80,0007.32,0005.97
2022-07-22 20:35:00,,0826.9,5.00,0.00,29.1,27.4,00.0,37.8,31.0,18.0,0000.0,0023.28,0007.28,0005.96
2022-07-22 20:36:00,,0826.9,4.99,0.00,29.1,27.6,00.0,37.8,31.1,17.9,0000.0,0022.67,0007.20,0005.95
2022-07-22 20:37:00,,0826.9,4.99,0.00,29.2,27.8,00.0,37.8,31.1,18.0,0000.0,0021.47,0007.17,0005.94
2022-07-22 20:38:00,,0826.9,5.00,0.00,29.2,28.0,00.0,37.8,31.2,17.9,0000.0,0022.24,0007.15,0005.90
2022-07-22 20:39:00,,0826.9,5.00,0.00,29.2,27.7,00.0,37.8,31.2,17.9,0000.0,0022.16,0007.16,0005.90
2022-07-22 20:40:00,,0826.8,5.00,0.00,29.2,27.1,00.0,37.8,31.1,17.6,0000.0,0022.27,0007.14,0005.86
2022-07-22 20:41:00,,0826.8,5.00,0.00,29.2,27.0,00.0,37.8,31.1,17.6,0000.0,0022.60,0007.19,0005.85
2022-07-22 20:42:00,,0827.0,5.00,0.00,29.2,27.1,00.0,37.8,31.0,17.7,0000.0,0022.21,0007.19,0005.86
2022-07-22 20:43:00,,0826.9,5.00,0.00,29.1,27.3,00.0,37.8,31.0,17.7,0000.0,0020.34,0007.09,0005.86
2022-07-22 20:44:00,,0827.1,5.00,0.00,29.2,27.5,00.0,37.8,31.1,17.9,0000.0,0019.63,0007.09,0005.87
2022-07-22 20:45:00,,0827.0,4.99,0.00,29.2,27.8,00.0,37.8,31.1,17.9,0000.0,0018.72,0007.05,0005.88
2022-07-22 20:46:00,,0827.0,5.00,0.00,29.2,27.8,00.0,37.8,31.2,17.8,0000.0,0018.71,0007.09,0005.87
2022-07-22 20:47:00,,0826.8,5.00,0.00,29.2,27.3,00.0,37.8,31.1,17.8,0000.0,0018.45,0007.13,0005.85
2022-07-22 20:48:00,,0826.8,5.01,0.00,29.2,27.0,00.0,37.7,31.1,17.6,0000.0,0018.18,0007.10,0005.83
2022-07-22 20:49:00,,0826.7,4.99,0.00,29.2,27.1,00.0,37.8,31.0,17.6,0000.0,0017.69,0007.11,0005.82
2022-07-22 20:50:00,,0826.8,5.00,0.00,29.1,27.2,00.0,37.8,31.0,17.5,0000.0,0017.98,0007.06,0005.78
2022-07-22 20:51:00,,0826.8,5.00,0.00,29.1,27.4,00.0,37.8,31.0,17.6,0000.0,0018.25,0007.06,0005.77
2022-07-22 20:52:00,,0826.7,5.00,0.00,29.2,27.6,00.0,37.8,31.1,17.6,0000.0,0018.38,0007.04,0005.74
2022-07-22 20:53:00,,0826.8,5.00,0.00,29.2,27.8,00.0,37.8,31.2,17.5,0000.0,0018.83,0007.02,0005.70
2022-07-22 20:54:00,,0826.8,5.00,0.00,29.2,27.5,00.0,37.8,31.2,17.6,0000.0,0018.58,0007.01,0005.67
2022-07-22 20:55:00,,0826.8,4.99,0.00,29.2,27.0,00.0,37.7,31.0,17.5,0000.0,0018.12,0007.02,0005.64
2022-07-22 20:56:00,,0826.7,5.00,0.00,29.1,26.9,00.0,37.7,31.0,17.5,0000.0,0018.38,0006.99,0005.61
2022-07-22 20:57:00,,0826.7,4.99,0.00,29.1,27.1,00.0,37.7,31.0,17.4,0000.0,0017.82,0006.93,0005.59
2022-07-22 20:58:00,,0826.7,5.01,0.00,29.1,27.3,00.0,37.8,31.0,17.5,0000.0,0017.37,0006.88,0005.57
2022-07-22 20:59:00,,0826.7,5.01,0.00,29.1,27.5,00.0,37.8,31.0,17.4,0000.0,0017.48,0006.86,0005.56
